Wind_Speed
20 17 16 14 14 14 14 13 12 12 10 11 10 8 7 7 6 6 6 8 14 10 8 8 7 6 6 6 6 7 6 7 7 7 6 7 7 7 7 7 8 8 8
21 20 19 18 16 15 14 14 14 13 11 11 10 9 8 7 6 6 7 9 11 8 8 7 6 5 5 5 5 5 5 6 6 6 5 6 6 6 6 7 7 8 8
24 22 20 20 20 17 16 16 15 14 13 12 10 9 9 8 8 8 9 11 8 8 8 7 7 6 5 4 4 4 4 4 5 5 5 6 5 5 5 6 7 7 8
27 25 24 22 23 21 20 19 18 16 15 14 12 10 9 9 9 9 10 11 11 10 9 8 7 4 4 4 3 4 4 4 4 5 4 5 6 6 6 7 7 8 9
30 29 29 26 25 25 23 22 21 19 18 16 13 11 10 10 9 11 12 12 12 12 11 9 9 6 4 2 3 4 4 6 5 5 6 8 8 8 8 9 9 10 11
31 31 31 30 28 27 26 25 23 22 19 17 13 11 10 10 10 12 13 14 13 13 12 11 9 7 5 4 3 3 4 6 6 6 7 8 10 10 11 11 12 13 14
33 32 34 33 34 32 31 27 26 23 19 19 13 7 8 9 11 13 14 15 15 14 13 12 10 9 7 6 7 8 8 8 7 7 8 9 11 12 12 13 15 16 17
35 35 37 36 37 34 33 32 32 26 21 23 9 4 3 5 11 14 15 16 16 15 14 13 12 11 9 8 9 10 10 7 7 8 9 11 13 14 15 16 18 19 20
38 38 39 39 38 39 38 37 36 33 25 25 18 7 3 5 4 10 15 17 18 18 17 16 15 13 11 9 8 7 7 7 8 9 11 13 15 17 19 20 21 22 23
38 40 40 41 41 40 39 40 39 39 33 24 22 20 9 5 3 2 8 15 17 18 19 18 16 13 11 9 8 7 7 8 10 12 14 16 18 20 22 22 23 24 24
35 40 42 43 43 42 42 42 41 41 39 29 25 14 16 11 8 3 3 6 15 18 18 18 16 13 11 9 8 7 8 9 12 15 17 18 20 21 23 24 25 26 26
32 36 39 43 43 43 43 44 43 42 41 34 31 23 19 8 9 6 2 4 6 11 18 18 16 14 13 11 8 8 10 13 16 16 18 20 21 23 24 25 25 25 26
31 34 37 40 43 42 40 39 39 39 40 37 30 28 22 18 12 15 7 5 2 5 6 14 16 14 13 12 9 8 15 20 17 17 19 21 22 23 23 24 25 25 26
32 30 33 36 40 40 38 36 34 34 35 33 24 23 21 18 14 13 8 4 1 1 1 2 5 11 12 12 10 14 21 20 19 19 20 23 25 24 24 25 26 26 26
28 26 25 28 32 32 32 32 30 29 27 25 22 18 14 12 11 9 7 8 5 2 2 3 5 7 10 11 14 18 17 19 19 20 22 25 25 25 25 26 26 27 27
23 22 21 23 25 26 26 27 26 26 26 22 20 19 17 13 9 9 5 4 2 3 2 6 7 7 11 16 19 18 18 21 20 22 24 25 25 24 25 26 27 27 27
16 17 18 20 21 24 24 25 26 25 24 23 21 20 17 13 11 7 6 2 2 5 7 6 9 13 16 18 19 20 22 21 20 22 25 25 24 23 25 25 26 27 27
11 13 16 18 21 22 23 25 26 25 26 26 21 17 13 8 5 3 1 5 4 9 9 9 9 7 14 18 21 21 23 21 21 24 25 23 23 23 23 24 25 25 26
9 12 15 18 20 23 26 25 28 28 26 21 17 13 11 6 4 2 2 8 6 10 9 9 10 9 11 19 16 17 17 20 20 23 22 22 21 21 21 22 24 25 28
16 18 20 24 25 26 28 30 29 26 21 17 14 11 10 8 3 6 9 5 6 10 11 10 11 11 11 12 15 16 19 20 22 22 24 18 21 21 24 26 27 28 28
21 21 24 26 28 30 28 28 25 22 18 14 9 6 4 4 4 3 1 4 8 9 8 11 11 11 13 15 18 20 21 20 22 23 19 18 21 23 26 25 26 26 26
23 26 27 26 27 29 24 20 18 18 14 12 9 7 5 4 4 3 2 5 8 8 8 9 10 14 15 18 18 18 21 21 12 16 19 27 26 29 28 23 25 27 29
26 28 27 26 25 22 19 17 16 15 11 10 7 7 5 2 2 4 5 5 7 8 9 12 16 17 18 19 20 19 19 20 21 30 28 28 26 27 24 23 26 29 30
25 24 25 26 24 19 19 19 17 15 12 9 7 4 3 3 6 6 7 8 9 11 13 12 15 16 16 17 16 18 22 23 23 27 20 20 23 24 25 25 28 29 24
24 23 22 22 21 17 13 16 13 10 9 7 5 4 5 6 6 7 9 9 10 12 15 11 12 15 16 18 17 17 17 17 16 23 21 19 17 25 28 30 20 19 23
24 22 20 16 16 15 11 9 7 6 5 4 4 6 7 7 8 8 9 10 9 13 13 13 16 19 18 18 15 11 12 15 16 14 6 7 19 19 10 16 14 23 25
Wind_Direction
209 209 208 206 201 197 194 194 193 193 202 198 192 192 193 197 200 199 191 177 174 150 139 133 125 112 101 90 79 72 70 61 55 54 52 50 45 39 35 30 25 18 14
214 215 217 215 210 205 202 201 201 201 197 193 197 201 206 206 204 194 171 159 190 168 145 141 132 118 108 99 82 68 62 47 39 37 42 38 31 30 23 16 10 8 3
220 220 222 219 214 212 208 206 203 201 201 204 207 210 212 210 200 191 183 178 170 184 155 143 134 121 102 89 69 62 52 33 20 15 14 12 8 360 356 353 350 350 349
226 225 225 223 217 214 212 210 207 206 203 205 208 212 213 208 203 197 192 189 189 182 170 163 150 130 102 84 69 45 32 13 348 343 339 339 337 333 326 327 330 330 330
229 229 228 226 221 217 215 214 208 209 206 207 211 213 216 213 210 208 203 197 194 194 193 191 195 195 173 122 45 31 13 5 347 333 320 320 318 317 313 309 310 315 315
232 231 232 228 223 220 217 214 212 209 212 207 204 213 215 215 212 213 210 203 200 201 204 206 208 213 217 228 268 321 342 339 335 323 311 310 311 309 307 303 300 302 304
234 232 232 229 225 223 219 215 210 209 206 199 186 207 221 221 217 213 210 209 207 208 212 213 220 227 238 258 276 289 298 312 313 316 312 303 304 302 301 299 297 296 297
234 231 231 228 225 221 217 215 211 202 204 196 179 145 202 228 225 217 211 211 213 214 218 221 226 234 247 262 280 293 300 310 320 314 310 303 301 298 296 294 294 293 294
236 232 230 227 226 222 220 217 214 211 194 198 197 169 156 220 166 212 214 213 215 217 219 222 226 234 248 263 275 283 283 300 327 317 311 306 301 296 293 291 290 290 290
238 236 234 231 227 225 223 222 220 214 210 195 201 219 217 162 184 197 222 218 221 222 220 219 221 230 242 252 264 269 282 298 322 314 309 305 300 297 293 290 289 288 288
238 238 235 232 229 227 226 227 221 216 215 210 197 190 217 217 215 158 187 204 218 223 218 218 221 230 239 247 259 270 289 311 319 312 308 304 301 297 293 290 289 287 286
238 237 236 234 232 229 226 225 224 221 217 217 214 210 196 181 201 181 160 211 191 213 212 221 227 233 237 241 249 280 297 312 316 311 308 306 302 297 293 290 287 285 284
240 240 238 233 232 231 228 224 222 220 218 218 219 217 216 214 208 200 177 201 196 180 214 229 232 238 235 235 249 287 307 312 311 308 307 305 302 298 294 290 287 286 284
251 250 244 236 233 230 225 223 220 218 218 217 220 222 217 214 207 191 169 152 162 114 317 221 238 235 233 238 269 297 305 310 310 308 307 305 302 297 293 290 288 286 283
256 252 248 241 233 226 220 217 213 211 209 207 209 204 197 192 181 170 173 175 132 187 179 167 194 235 241 257 274 302 304 309 307 305 302 301 298 295 291 288 287 286 283
258 251 242 232 224 221 216 209 201 197 192 189 186 175 167 161 149 136 143 139 152 168 227 205 215 236 270 286 297 303 303 308 303 302 300 299 297 293 289 287 286 283 282
251 241 226 217 210 206 200 195 187 180 175 164 161 158 146 144 133 140 139 172 142 214 234 253 262 273 288 297 302 306 309 309 305 303 302 301 298 295 291 288 285 284 282
229 223 211 200 192 187 182 178 166 163 155 148 143 137 130 139 153 152 254 232 207 248 251 262 256 279 294 306 308 309 311 307 302 302 303 302 298 295 292 290 288 286 284
195 183 178 170 162 157 157 155 152 148 143 138 137 137 132 151 153 197 241 266 254 256 248 253 283 296 294 308 304 301 303 304 304 304 301 300 296 295 294 293 290 286 284
144 151 147 142 140 142 143 142 137 133 132 133 137 145 155 166 174 237 228 238 270 274 278 272 278 288 286 296 297 306 311 308 304 303 301 297 297 293 290 291 290 287 284
116 118 127 135 136 134 132 131 129 127 128 128 126 136 139 156 149 202 253 256 267 268 288 281 285 288 297 305 309 311 305 308 308 299 297 304 303 300 296 297 293 291 288
110 106 101 102 105 113 121 122 127 124 125 120 127 131 124 147 207 238 261 276 276 287 285 292 300 301 308 305 305 307 306 310 313 305 302 302 303 297 296 294 293 292 290
109 115 117 117 110 106 113 122 123 111 105 117 126 132 136 184 305 308 312 309 300 304 303 302 300 298 299 304 305 300 302 303 297 296 300 295 296 290 292 291 290 290 289
114 111 111 112 109 106 105 102 106 113 118 121 133 102 48 346 341 336 324 314 315 315 312 302 292 294 294 300 300 299 300 299 295 292 294 287 300 293 296 290 287 287 286
113 111 110 110 105 101 104 103 103 112 115 109 72 27 0 355 356 333 322 319 315 310 314 307 296 297 301 302 303 304 298 301 299 298 300 280 290 300 300 291 282 282 280
110 110 107 104 110 105 80 74 91 102 79 67 26 15 3 359 347 331 330 326 315 311 319 319 317 319 320 318 316 302 293 287 296 304 319 283 299 314 307 290 288 292 287
Height
832 835 838 840 842 843 845 847 848 849 851 851 853 854 856 856 857 857 858 859 859 860 862 862 862 863 863 863 861 861 861 860 859 858 857 856 855 855 855 854 853 853 852
829 833 836 838 840 842 844 846 846 848 849 850 851 852 854 854 856 857 858 859 859 860 861 862 863 863 863 862 862 861 861 861 860 859 858 857 855 855 855 854 854 853 852
826 829 833 835 837 839 841 843 844 846 847 849 850 852 853 853 854 855 857 858 859 860 860 861 861 862 863 863 862 861 860 860 859 859 859 857 856 855 855 854 854 853 852
823 826 828 831 833 835 838 840 842 844 845 846 848 849 851 851 853 853 854 856 856 858 860 860 860 861 861 862 862 861 860 859 859 859 858 857 856 855 854 854 853 852 851
817 820 824 827 830 832 833 836 838 840 842 845 846 846 849 850 850 851 853 853 854 855 856 857 857 857 858 859 860 859 859 858 857 857 857 857 855 854 853 852 852 851 850
812 815 818 821 825 828 829 831 834 837 839 841 844 846 846 847 847 849 851 851 852 853 854 855 856 857 857 856 857 857 857 856 855 854 854 855 854 853 852 851 850 849 848
804 809 812 815 817 820 823 826 830 832 835 837 841 844 845 845 845 845 847 849 849 851 853 853 854 855 855 854 855 855 853 854 853 852 851 852 852 851 849 848 847 846 845
796 800 804 806 809 813 817 818 822 826 830 833 837 840 842 845 843 843 843 844 846 847 849 850 850 852 852 851 852 852 851 851 850 850 849 848 848 848 846 845 844 842 841
787 790 794 798 801 805 807 810 814 818 822 827 830 832 839 833 838 838 839 840 841 842 844 844 845 847 848 848 848 849 849 849 848 848 847 845 845 844 843 841 839 838 836
779 783 787 790 793 797 800 803 807 810 814 819 825 826 827 828 831 836 836 836 838 839 839 839 841 843 844 844 845 846 845 846 846 846 844 842 841 840 838 836 834 832 830
772 775 778 781 783 787 792 795 800 802 806 811 814 818 824 826 826 827 829 831 832 834 834 836 837 838 841 841 842 843 843 843 843 842 840 838 836 835 833 831 828 826 824
766 768 771 774 776 778 781 785 790 796 800 805 809 811 813 818 820 821 824 827 825 829 829 833 834 835 836 837 838 839 840 839 838 837 835 833 831 830 828 825 823 820 818
760 761 763 766 769 772 776 779 784 789 793 799 803 805 809 810 812 814 817 825 824 825 829 830 830 833 834 834 834 835 836 835 833 832 830 827 825 823 821 819 816 814 812
753 755 757 759 761 765 768 773 778 784 789 795 801 804 806 808 809 810 813 820 825 825 826 828 830 831 832 833 832 831 830 829 827 826 824 821 818 816 815 812 810 807 805
749 751 753 755 758 761 764 768 773 779 786 792 797 801 803 808 809 809 813 816 817 824 821 823 825 828 829 830 828 827 825 823 821 820 818 815 812 810 808 806 803 801 798
746 747 749 751 754 758 761 766 770 771 780 788 793 797 802 807 810 810 814 817 818 822 824 820 824 824 825 824 822 821 820 817 815 813 811 809 806 803 801 799 796 793 791
742 745 746 748 751 755 758 764 768 773 780 786 793 796 800 805 807 812 811 817 817 819 822 818 818 821 819 818 817 815 814 811 808 806 803 801 798 796 793 791 788 786 783
740 743 746 748 749 753 758 762 768 774 781 787 793 797 802 806 809 811 814 816 809 818 821 818 819 813 814 813 814 811 809 807 804 800 796 793 790 788 785 783 780 778 776
741 743 746 748 752 754 758 764 770 776 782 789 794 798 801 807 806 810 807 815 812 817 813 816 815 809 809 808 808 807 803 801 797 792 788 785 782 780 778 776 774 771 768
743 746 748 749 755 760 763 766 773 780 786 790 794 798 799 801 804 809 810 809 810 815 812 812 810 807 807 806 803 800 797 796 792 787 782 779 775 773 771 767 765 761 757
749 752 753 754 758 762 769 773 779 783 788 792 797 798 801 801 803 808 806 808 810 810 807 810 807 805 803 801 799 796 793 790 787 782 776 774 771 768 762 759 754 750 748
756 758 759 765 768 768 774 779 783 785 790 792 797 800 801 804 806 804 806 807 808 804 805 805 803 801 799 798 795 792 790 786 780 775 772 769 766 760 755 752 747 743 740
762 762 765 769 775 778 779 783 786 788 792 794 798 802 804 805 806 803 803 802 803 803 800 800 799 798 796 794 791 787 785 782 779 770 768 761 758 752 748 743 739 734 731
769 772 771 772 779 782 783 786 788 791 797 801 803 803 802 802 801 801 801 799 798 797 796 796 796 794 792 789 786 783 780 776 773 766 764 756 749 744 740 736 731 726 722
776 778 781 785 786 789 791 790 792 796 799 799 801 801 801 799 797 798 797 795 794 793 793 792 791 788 786 783 781 778 774 772 767 759 757 753 744 737 732 725 721 718 716
783 786 787 791 790 791 791 793 795 797 797 797 799 799 797 796 795 796 795 792 792 791 789 786 784 781 779 776 774 772 770 768 764 757 750 749 741 737 725 718 715 712 708